Preview of NWS' New Version of Forecast
This preview is not operational and should not be used for support decisions.

Regional Weather Roundup (RWR)

Issued by National Weather Service (NWS)

                            
000
ASUS46 KPQR 241610
RWROR 

OREGON REGIONAL WEATHER ROUNDUP
NATIONAL WEATHER SERVICE PORTLAND OR
900 AM PDT FRI MAY 24 2019

NOTE: "FAIR" INDICATES FEW OR NO CLOUDS BELOW 12,000 FEET WITH
NO SIGNIFICANT WEATHER AND/OR OBSTRUCTIONS TO VISIBILITY.

ORZ001>013-241700-
NORTHWEST OREGON

  
CITY           SKY/WX    TMP DP  RH WIND       PRES   REMARKS
ASTORIA        LGT RAIN  52  50  93 W12       30.01R FOG              
TILLAMOOK      CLOUDY    54  52  94 NW9       30.06R FOG              
NEWPORT        FOG       52  50  93 W5        30.11R VSB 1            
PORTLAND       CLOUDY    56  49  77 S9        30.01S                  
VANCOUVER WA   CLOUDY    56  49  77 VRB3      30.01R                  
SCAPPOOSE      CLOUDY    57  51  80 SE6       29.99S                  
HILLSBORO      CLOUDY    56  48  74 S5        30.00S                  
AURORA         CLOUDY    54  48  80 S7        30.03R                  
MCMINNVILLE    CLOUDY    55  49  80 S12       30.02S                  
SALEM          CLOUDY    53  49  86 SW8       30.03S                  
CORVALLIS      CLOUDY    52  51  97 S5        30.07S                  
EUGENE         CLOUDY    54  49  83 S8        30.07S                  
$$

ORZ021-028-241700-
SOUTHWEST OREGON

  
CITY           SKY/WX    TMP DP  RH WIND       PRES   REMARKS
NORTH BEND     CLOUDY    55  51  86 NW3       30.12S                  
BROOKINGS      CLOUDY    52  50  93 CALM      30.06R                  
ROSEBURG       CLOUDY    57  46  66 CALM      30.09S                  
SEXTON SUMMIT  LGT RAIN  47  43  86 N3        30.06R                  
GRANTS PASS    FAIR      57  48  72 NW5       30.08R                  
MEDFORD        PTSUNNY   58  48  69 CALM      30.05R                  
$$

ORZ014>016-041-241700-
COLUMBIA GORGE

  
CITY           SKY/WX    TMP DP  RH WIND       PRES   REMARKS
TROUTDALE      DRIZZLE   54  50  86 SW9       30.01S FOG              
HOOD RIVER     CLOUDY    54  46  76 NW12G21   29.94S                  
THE DALLES     PTSUNNY   58  46  64 NW20G26   29.89F                  
$$

ORZ029>031-041-044-049-050-061>064-502-503-505>511-241700-
EASTERN OREGON

  
CITY           SKY/WX    TMP DP  RH WIND       PRES   REMARKS
MADRAS         CLOUDY    59  41  51 CALM      29.95S                  
REDMOND        FAIR      61  37  41 NW12      29.95F                  
BEND           FAIR      59  37  44 W8        29.96S                  
PRINEVILLE     PTSUNNY   55  41  58 W7G15     29.95S                  
KLAMATH FALLS  CLOUDY    53  43  68 CALM      30.03S                  
LAKEVIEW       FAIR      50  41  71 S9        30.04S                  
HERMISTON      PTSUNNY   63  43  48 W22G30    29.81R                  
PENDLETON      PTSUNNY   59  41  51 W17G24    29.83R                  
JOHN DAY       CLOUDY    56  44  66 W7        29.94S                  
MEACHAM        PTSUNNY   52  45  77 CALM      29.88R                  
LA GRANDE      PTSUNNY   52  49  89 SE9       29.89S                  
BAKER CITY     LGT RAIN  51  47  86 S5        29.90S                  
BURNS          LGT RAIN  49  43  80 NE6       29.97R                  
ROME             N/A     59  41  51 W14       29.95R                  
ONTARIO        PTSUNNY   60  48  64 CALM      29.90S                  
$$